START_TIME,STEP,MOV.,P11,t_acc.,P23,t_acc.,P27,t_acc.,A4,t_acc.
1979-07-15 15:00:23.320 ,1,0,0.,4.8,0.,4.8,0.,4.8,0.,4.8
1979-07-15 15:00:28.120 ,1,0,1.,4.8,0.,4.8,0.,4.8,0.,4.8
1979-07-15 15:00:32.920 ,1,0,1.,4.8,0.,4.8,0.,4.8,0.,4.8
1979-07-15 15:00:37.720 ,1,0,2.,4.8,0.,4.8,0.,4.8,0.,4.8
1979-07-15 15:00:42.520 ,1,0,4.,4.8,0.,4.8,0.,4.8,0.,4.8
1979-07-15 15:00:47.320 ,2,0,3.,4.8,0.,4.8,0.,4.8,0.,4.8
1979-07-15 15:00:52.120 ,2,0,2.,4.8,0.,4.8,0.,4.8,0.,4.8
1979-07-15 15:00:56.920 ,2,0,2.,4.8,0.,4.8,0.,4.8,0.,4.8
1979-07-15 15:01:01.720 ,2,0,4.,4.8,0.,4.8,0.,4.8,0.,4.8
1979-07-15 15:01:06.520 ,2,0,3.,4.8,0.,4.8,0.,4.8,0.,4.8
1979-07-15 15:01:11.320 ,2,0,1.,4.8,0.,4.8,0.,4.8,0.,4.8
1979-07-15 15:01:16.120 ,2,0,0.,4.8,0.,4.8,0.,4.8,0.,4.8
1979-07-15 15:01:20.920 ,2,0,3.,4.8,0.,4.8,0.,4.8,1.,4.8
1979-07-15 15:01:25.720 ,2,0,1.,4.8,0.,4.8,0.,4.8,0.,4.8
1979-07-15 15:01:30.520 ,2,0,0.,4.8,0.,4.8,0.,4.8,0.,4.8
1979-07-15 15:01:35.320 ,3,0,1.,4.8,0.,4.8,0.,4.8,0.,4.8
1979-07-15 15:01:40.120 ,3,0,1.,4.8,0.,4.8,0.,4.8,0.,4.8
1979-07-15 15:01:44.920 ,3,0,4.,4.8,0.,4.8,0.,4.8,0.,4.8
1979-07-15 15:01:49.720 ,3,0,2.,4.8,0.,4.8,0.,4.8,0.,4.8
1979-07-15 15:01:54.520 ,3,0,3.,4.8,0.,4.8,0.,4.8,0.,4.8
1979-07-15 15:01:59.320 ,3,0,5.,4.8,0.,4.8,0.,4.8,0.,4.8
1979-07-15 15:02:04.120 ,3,0,1.,4.8,0.,4.8,0.,4.8,0.,4.8
1979-07-15 15:02:08.920 ,3,0,0.,4.8,0.,4.8,0.,4.8,0.,4.8
1979-07-15 15:02:13.720 ,3,0,4.,4.8,0.,4.8,0.,4.8,1.,4.8
1979-07-15 15:02:18.520 ,3,0,1.,4.8,0.,4.8,0.,4.8,0.,4.8
1979-07-15 15:02:23.320 ,4,0,5.,4.8,0.,4.8,0.,4.8,0.,4.8
1979-07-15 15:02:28.120 ,4,0,4.,4.8,0.,4.8,0.,4.8,1.,4.8
1979-07-15 15:02:32.920 ,4,0,2.,4.8,0.,4.8,0.,4.8,0.,4.8
1979-07-15 15:02:37.720 ,4,0,2.,4.8,0.,4.8,0.,4.8,0.,4.8
1979-07-15 15:02:42.520 ,4,0,5.,4.8,0.,4.8,0.,4.8,0.,4.8
1979-07-15 15:02:47.320 ,4,0,4.,4.8,0.,4.8,0.,4.8,0.,4.8
1979-07-15 15:02:52.120 ,4,0,3.,4.8,0.,4.8,0.,4.8,1.,4.8
1979-07-15 15:02:56.920 ,4,0,0.,4.8,0.,4.8,0.,4.8,0.,4.8
1979-07-15 15:03:01.720 ,4,0,1.,4.8,0.,4.8,0.,4.8,0.,4.8
1979-07-15 15:03:06.520 ,4,0,4.,4.8,0.,4.8,0.,4.8,0.,4.8
1979-07-15 15:03:11.320 ,5,0,2.,4.8,0.,4.8,0.,4.8,0.,4.8
1979-07-15 15:03:16.120 ,5,0,2.,4.8,0.,4.8,0.,4.8,0.,4.8
1979-07-15 15:03:20.920 ,5,0,3.,4.8,0.,4.8,0.,4.8,0.,4.8
1979-07-15 15:03:25.720 ,5,0,2.,4.8,0.,4.8,0.,4.8,0.,4.8
1979-07-15 15:03:30.520 ,5,0,5.,4.8,0.,4.8,0.,4.8,0.,4.8
1979-07-15 15:03:35.320 ,5,0,0.,4.8,0.,4.8,0.,4.8,0.,4.8
1979-07-15 15:03:40.120 ,5,0,0.,4.8,0.,4.8,0.,4.8,0.,4.8
1979-07-15 15:03:44.920 ,5,0,5.,4.8,0.,4.8,0.,4.8,0.,4.8
1979-07-15 15:03:49.720 ,5,0,3.,4.8,0.,4.8,0.,4.8,0.,4.8
1979-07-15 15:03:54.520 ,5,0,0.,4.8,0.,4.8,0.,4.8,0.,4.8
1979-07-15 15:03:59.320 ,6,0,0.,4.8,0.,4.8,0.,4.8,0.,4.8
1979-07-15 15:04:04.120 ,6,0,5.,4.8,0.,4.8,0.,4.8,0.,4.8
1979-07-15 15:04:08.920 ,6,0,2.,4.8,0.,4.8,0.,4.8,1.,4.8
1979-07-15 15:04:13.720 ,6,0,3.,4.8,0.,4.8,0.,4.8,0.,4.8
1979-07-15 15:04:18.520 ,6,0,1.,4.8,0.,4.8,0.,4.8,1.,4.8
1979-07-15 15:04:23.320 ,6,0,2.,4.8,0.,4.8,0.,4.8,0.,4.8
1979-07-15 15:04:28.120 ,6,0,4.,4.8,0.,4.8,0.,4.8,0.,4.8
1979-07-15 15:04:32.920 ,6,0,0.,4.8,0.,4.8,0.,4.8,0.,4.8
1979-07-15 15:04:37.720 ,6,0,1.,4.8,0.,4.8,0.,4.8,0.,4.8
1979-07-15 15:04:42.520 ,6,0,0.,4.8,0.,4.8,0.,4.8,0.,4.8
1979-07-15 15:04:47.320 ,7,0,1.,4.8,0.,4.8,0.,4.8,0.,4.8
1979-07-15 15:04:52.120 ,7,0,0.,4.8,0.,4.8,0.,4.8,0.,4.8
1979-07-15 15:04:56.920 ,7,0,1.,4.8,0.,4.8,0.,4.8,0.,4.8
1979-07-15 15:05:01.720 ,7,0,0.,4.8,0.,4.8,0.,4.8,0.,4.8
1979-07-15 15:05:06.520 ,7,0,0.,4.8,0.,4.8,0.,4.8,0.,4.8
1979-07-15 15:05:11.320 ,7,0,0.,4.8,0.,4.8,0.,4.8,0.,4.8
1979-07-15 15:05:16.120 ,7,0,0.,4.8,0.,4.8,0.,4.8,0.,4.8
1979-07-15 15:05:20.920 ,7,0,1.,4.8,0.,4.8,0.,4.8,0.,4.8
1979-07-15 15:05:25.720 ,7,0,1.,4.8,0.,4.8,0.,4.8,0.,4.8
1979-07-15 15:05:30.520 ,7,0,0.,4.8,0.,4.8,0.,4.8,0.,4.8
1979-07-15 15:05:35.320 ,7,0,0.,4.8,0.,4.8,0.,4.8,0.,4.8
1979-07-15 15:05:40.110 ,7,0,0.,4.8,0.,4.8,0.,4.8,0.,4.8
1979-07-15 15:05:44.920 ,7,0,1.,4.8,0.,4.8,0.,4.8,0.,4.8
1979-07-15 15:05:49.710 ,7,0,0.,4.8,0.,4.8,0.,4.8,0.,4.8
1979-07-15 15:05:54.520 ,7,0,1.,4.8,0.,4.8,0.,4.8,0.,4.8
1979-07-15 15:05:59.320 ,7,0,1.,4.8,0.,4.8,0.,4.8,0.,4.8
1979-07-15 15:06:04.110 ,7,0,1.,4.8,0.,4.8,0.,4.8,0.,4.8
1979-07-15 15:06:08.920 ,7,0,1.,4.8,0.,4.8,0.,4.8,0.,4.8
1979-07-15 15:06:13.710 ,7,0,0.,4.8,0.,4.8,0.,4.8,0.,4.8
1979-07-15 15:06:18.520 ,7,0,0.,4.8,0.,4.8,0.,4.8,0.,4.8
1979-07-15 15:06:23.320 ,6,0,0.,4.8,0.,4.8,0.,4.8,0.,4.8
1979-07-15 15:06:28.110 ,6,0,3.,4.8,0.,4.8,0.,4.8,0.,4.8
1979-07-15 15:06:32.920 ,6,0,3.,4.8,0.,4.8,0.,4.8,0.,4.8
1979-07-15 15:06:37.710 ,6,0,3.,4.8,0.,4.8,0.,4.8,0.,4.8
1979-07-15 15:06:42.520 ,6,0,2.,4.8,0.,4.8,0.,4.8,0.,4.8
1979-07-15 15:06:47.320 ,6,0,2.,4.8,0.,4.8,0.,4.8,0.,4.8
1979-07-15 15:06:52.110 ,6,0,1.,4.8,0.,4.8,0.,4.8,0.,4.8
1979-07-15 15:06:56.920 ,6,0,4.,4.8,0.,4.8,0.,4.8,0.,4.8
1979-07-15 15:07:01.710 ,6,0,2.,4.8,0.,4.8,0.,4.8,0.,4.8
1979-07-15 15:07:06.520 ,6,0,3.,4.8,0.,4.8,0.,4.8,0.,4.8
1979-07-15 15:07:11.320 ,5,0,1.,4.8,0.,4.8,0.,4.8,0.,4.8
1979-07-15 15:07:16.110 ,5,0,3.,4.8,0.,4.8,0.,4.8,1.,4.8
1979-07-15 15:07:20.920 ,5,0,2.,4.8,0.,4.8,0.,4.8,0.,4.8
1979-07-15 15:07:25.710 ,5,0,2.,4.8,0.,4.8,0.,4.8,0.,4.8
1979-07-15 15:07:30.520 ,5,0,5.,4.8,0.,4.8,0.,4.8,0.,4.8
1979-07-15 15:07:35.320 ,5,0,4.,4.8,0.,4.8,0.,4.8,0.,4.8
1979-07-15 15:07:40.110 ,5,0,2.,4.8,0.,4.8,0.,4.8,0.,4.8
1979-07-15 15:07:44.920 ,5,0,1.,4.8,0.,4.8,0.,4.8,1.,4.8
1979-07-15 15:07:49.710 ,5,0,0.,4.8,0.,4.8,0.,4.8,0.,4.8
1979-07-15 15:07:54.520 ,5,0,2.,4.8,0.,4.8,0.,4.8,0.,4.8
1979-07-15 15:07:59.320 ,4,0,0.,4.8,0.,4.8,0.,4.8,0.,4.8
1979-07-15 15:08:04.110 ,4,0,2.,4.8,0.,4.8,0.,4.8,0.,4.8
1979-07-15 15:08:08.920 ,4,0,1.,4.8,0.,4.8,0.,4.8,0.,4.8
1979-07-15 15:08:13.710 ,4,0,0.,4.8,0.,4.8,0.,4.8,0.,4.8
1979-07-15 15:08:18.520 ,4,0,0.,4.8,0.,4.8,0.,4.8,0.,4.8
1979-07-15 15:08:23.320 ,4,0,1.,4.8,0.,4.8,0.,4.8,0.,4.8
1979-07-15 15:08:28.110 ,4,0,2.,4.8,0.,4.8,0.,4.8,0.,4.8
1979-07-15 15:08:32.910 ,4,0,2.,4.8,0.,4.8,0.,4.8,0.,4.8
1979-07-15 15:08:37.720 ,4,0,0.,4.8,0.,4.8,0.,4.8,0.,4.8
1979-07-15 15:08:42.520 ,4,0,4.,4.8,0.,4.8,0.,4.8,0.,4.8
1979-07-15 15:08:47.320 ,3,0,0.,4.8,0.,4.8,0.,4.8,0.,4.8
1979-07-15 15:08:52.120 ,3,0,0.,4.8,0.,4.8,0.,4.8,0.,4.8
1979-07-15 15:08:56.920 ,3,0,1.,4.8,0.,4.8,0.,4.8,0.,4.8
1979-07-15 15:09:01.720 ,3,0,4.,4.8,0.,4.8,0.,4.8,0.,4.8
1979-07-15 15:09:06.520 ,3,0,2.,4.8,0.,4.8,0.,4.8,0.,4.8
1979-07-15 15:09:11.320 ,3,0,2.,4.8,0.,4.8,0.,4.8,0.,4.8
1979-07-15 15:09:16.120 ,3,0,2.,4.8,0.,4.8,0.,4.8,0.,4.8
1979-07-15 15:09:20.920 ,3,0,1.,4.8,0.,4.8,0.,4.8,0.,4.8
1979-07-15 15:09:25.720 ,3,0,3.,4.8,0.,4.8,0.,4.8,1.,4.8
1979-07-15 15:09:30.520 ,3,0,0.,4.8,0.,4.8,0.,4.8,0.,4.8
1979-07-15 15:09:59.320 ,2,0,3.,4.8,0.,4.8,0.,4.8,0.,4.8
1979-07-15 15:10:04.120 ,2,0,0.,4.8,0.,4.8,0.,4.8,0.,4.8
1979-07-15 15:10:08.920 ,2,0,2.,4.8,0.,4.8,0.,4.8,0.,4.8
1979-07-15 15:10:13.720 ,2,0,5.,4.8,0.,4.8,0.,4.8,0.,4.8
1979-07-15 15:10:18.520 ,2,0,3.,4.8,0.,4.8,0.,4.8,0.,4.8
1979-07-15 15:10:23.320 ,1,0,6.,4.8,0.,4.8,0.,4.8,0.,4.8
1979-07-15 15:10:28.120 ,1,0,3.,4.8,0.,4.8,0.,4.8,0.,4.8
1979-07-15 15:10:32.920 ,1,0,3.,4.8,0.,4.8,0.,4.8,0.,4.8
1979-07-15 15:10:37.720 ,1,0,2.,4.8,0.,4.8,0.,4.8,0.,4.8
1979-07-15 15:10:42.520 ,1,0,1.,4.8,0.,4.8,0.,4.8,0.,4.8
1979-07-15 15:10:47.320 ,1,0,2.,4.8,0.,4.8,0.,4.8,0.,4.8
1979-07-15 15:10:52.120 ,1,0,3.,4.8,0.,4.8,0.,4.8,0.,4.8
1979-07-15 15:10:56.920 ,1,0,2.,4.8,0.,4.8,0.,4.8,0.,4.8
1979-07-15 15:11:01.720 ,1,0,1.,4.8,0.,4.8,0.,4.8,0.,4.8
1979-07-15 15:11:06.520 ,1,0,1.,4.8,0.,4.8,0.,4.8,0.,4.8
1979-07-15 15:11:11.320 ,0,0,2.,4.8,0.,4.8,0.,4.8,0.,4.8
1979-07-15 15:11:16.120 ,0,0,1.,4.8,0.,4.8,0.,4.8,0.,4.8
1979-07-15 15:11:20.920 ,0,0,2.,4.8,0.,4.8,0.,4.8,0.,4.8
1979-07-15 15:11:25.720 ,0,0,0.,4.8,0.,4.8,0.,4.8,0.,4.8
1979-07-15 15:11:30.520 ,0,0,1.,4.8,0.,4.8,0.,4.8,0.,4.8
1979-07-15 15:11:35.320 ,0,0,1.,4.8,0.,4.8,0.,4.8,0.,4.8
1979-07-15 15:11:40.120 ,0,0,3.,4.8,0.,4.8,0.,4.8,0.,4.8
1979-07-15 15:11:44.920 ,0,0,1.,4.8,0.,4.8,0.,4.8,0.,4.8
1979-07-15 15:11:49.720 ,0,0,3.,4.8,0.,4.8,0.,4.8,0.,4.8
1979-07-15 15:11:54.520 ,0,0,2.,4.8,0.,4.8,0.,4.8,0.,4.8
1979-07-15 15:11:59.320 ,0,0,3.,4.8,0.,4.8,0.,4.8,0.,4.8
1979-07-15 15:12:04.120 ,0,0,1.,4.8,0.,4.8,0.,4.8,0.,4.8
1979-07-15 15:12:08.920 ,0,0,1.,4.8,0.,4.8,0.,4.8,0.,4.8
1979-07-15 15:12:13.720 ,0,0,3.,4.8,0.,4.8,0.,4.8,0.,4.8
1979-07-15 15:12:18.520 ,0,0,4.,4.8,0.,4.8,0.,4.8,0.,4.8
1979-07-15 15:12:23.320 ,0,0,1.,4.8,0.,4.8,0.,4.8,0.,4.8
1979-07-15 15:12:28.120 ,0,0,3.,4.8,0.,4.8,0.,4.8,0.,4.8
1979-07-15 15:12:32.920 ,0,0,1.,4.8,0.,4.8,0.,4.8,0.,4.8
1979-07-15 15:12:37.720 ,0,0,1.,4.8,0.,4.8,0.,4.8,0.,4.8
1979-07-15 15:12:42.520 ,0,0,4.,4.8,0.,4.8,0.,4.8,0.,4.8
1979-07-15 15:12:47.320 ,1,0,0.,4.8,0.,4.8,0.,4.8,1.,4.8
1979-07-15 15:12:52.120 ,1,0,3.,4.8,0.,4.8,0.,4.8,0.,4.8
1979-07-15 15:12:56.920 ,1,0,0.,4.8,0.,4.8,0.,4.8,0.,4.8
1979-07-15 15:13:01.720 ,1,0,1.,4.8,0.,4.8,0.,4.8,0.,4.8
1979-07-15 15:13:06.520 ,1,0,2.,4.8,0.,4.8,0.,4.8,0.,4.8
1979-07-15 15:13:11.320 ,1,0,2.,4.8,0.,4.8,0.,4.8,0.,4.8
1979-07-15 15:13:16.120 ,1,0,3.,4.8,0.,4.8,0.,4.8,1.,4.8
1979-07-15 15:13:20.920 ,1,0,0.,4.8,0.,4.8,0.,4.8,0.,4.8
1979-07-15 15:13:25.720 ,1,0,1.,4.8,0.,4.8,0.,4.8,0.,4.8
1979-07-15 15:13:30.520 ,1,0,0.,4.8,0.,4.8,0.,4.8,0.,4.8
1979-07-15 15:13:35.320 ,2,0,3.,4.8,0.,4.8,0.,4.8,1.,4.8
1979-07-15 15:13:40.120 ,2,0,3.,4.8,0.,4.8,0.,4.8,0.,4.8
1979-07-15 15:13:44.920 ,2,0,4.,4.8,0.,4.8,0.,4.8,0.,4.8
1979-07-15 15:13:49.720 ,2,0,0.,4.8,0.,4.8,0.,4.8,0.,4.8
1979-07-15 15:13:54.520 ,2,0,2.,4.8,0.,4.8,0.,4.8,0.,4.8
1979-07-15 15:13:59.320 ,2,0,4.,4.8,0.,4.8,0.,4.8,0.,4.8
1979-07-15 15:14:04.120 ,2,0,2.,4.8,0.,4.8,0.,4.8,0.,4.8
1979-07-15 15:14:08.920 ,2,0,4.,4.8,0.,4.8,0.,4.8,0.,4.8
1979-07-15 15:14:13.720 ,2,0,0.,4.8,0.,4.8,0.,4.8,0.,4.8
1979-07-15 15:14:18.520 ,2,0,1.,4.8,0.,4.8,0.,4.8,0.,4.8
1979-07-15 15:14:23.320 ,3,0,1.,4.8,0.,4.8,0.,4.8,0.,4.8
1979-07-15 15:14:28.120 ,3,0,1.,4.8,0.,4.8,0.,4.8,1.,4.8
1979-07-15 15:14:32.920 ,3,0,3.,4.8,0.,4.8,0.,4.8,0.,4.8
1979-07-15 15:14:37.720 ,3,0,3.,4.8,0.,4.8,0.,4.8,0.,4.8
1979-07-15 15:14:42.520 ,3,0,0.,4.8,0.,4.8,0.,4.8,1.,4.8
1979-07-15 15:14:47.320 ,3,0,1.,4.8,0.,4.8,0.,4.8,0.,4.8
1979-07-15 15:14:52.120 ,3,0,1.,4.8,0.,4.8,0.,4.8,0.,4.8
1979-07-15 15:14:56.920 ,3,0,0.,4.8,0.,4.8,0.,4.8,0.,4.8
1979-07-15 15:15:01.720 ,3,0,2.,4.8,0.,4.8,0.,4.8,0.,4.8
1979-07-15 15:15:06.520 ,3,0,4.,4.8,0.,4.8,0.,4.8,0.,4.8
1979-07-15 15:15:11.320 ,4,0,0.,4.8,0.,4.8,0.,4.8,0.,4.8
1979-07-15 15:15:16.120 ,4,0,0.,4.8,0.,4.8,0.,4.8,0.,4.8
1979-07-15 15:15:20.920 ,4,0,2.,4.8,0.,4.8,0.,4.8,0.,4.8
1979-07-15 15:15:25.720 ,4,0,1.,4.8,0.,4.8,0.,4.8,1.,4.8
1979-07-15 15:15:30.520 ,4,0,1.,4.8,0.,4.8,0.,4.8,0.,4.8
1979-07-15 15:15:35.320 ,4,0,1.,4.8,0.,4.8,0.,4.8,1.,4.8
1979-07-15 15:15:40.120 ,4,0,2.,4.8,0.,4.8,0.,4.8,0.,4.8
1979-07-15 15:15:44.920 ,4,0,1.,4.8,0.,4.8,0.,4.8,0.,4.8
1979-07-15 15:15:49.720 ,4,0,2.,4.8,0.,4.8,0.,4.8,0.,4.8
1979-07-15 15:15:54.520 ,4,0,2.,4.8,0.,4.8,0.,4.8,0.,4.8
1979-07-15 15:15:59.320 ,5,0,0.,4.8,0.,4.8,0.,4.8,0.,4.8
1979-07-15 15:16:04.120 ,5,0,2.,4.8,0.,4.8,0.,4.8,0.,4.8
1979-07-15 15:16:08.920 ,5,0,1.,4.8,0.,4.8,0.,4.8,0.,4.8
1979-07-15 15:16:13.720 ,5,0,0.,4.8,0.,4.8,0.,4.8,0.,4.8
1979-07-15 15:16:18.520 ,5,0,0.,4.8,0.,4.8,0.,4.8,0.,4.8
1979-07-15 15:16:23.320 ,5,0,0.,4.8,0.,4.8,0.,4.8,0.,4.8
1979-07-15 15:16:28.120 ,5,0,2.,4.8,0.,4.8,0.,4.8,1.,4.8
1979-07-15 15:16:32.920 ,5,0,0.,4.8,0.,4.8,0.,4.8,0.,4.8
1979-07-15 15:16:37.720 ,5,0,3.,4.8,0.,4.8,0.,4.8,0.,4.8
1979-07-15 15:16:42.520 ,5,0,1.,4.8,0.,4.8,0.,4.8,1.,4.8
1979-07-15 15:16:47.320 ,6,0,1.,4.8,0.,4.8,0.,4.8,0.,4.8
1979-07-15 15:16:52.120 ,6,0,4.,4.8,0.,4.8,0.,4.8,0.,4.8
1979-07-15 15:16:56.920 ,6,0,1.,4.8,0.,4.8,0.,4.8,1.,4.8
1979-07-15 15:17:01.720 ,6,0,1.,4.8,0.,4.8,0.,4.8,0.,4.8
1979-07-15 15:17:06.520 ,6,0,1.,4.8,0.,4.8,0.,4.8,0.,4.8
1979-07-15 15:17:11.310 ,6,0,3.,4.8,0.,4.8,0.,4.8,0.,4.8
1979-07-15 15:17:16.110 ,6,0,0.,4.8,0.,4.8,0.,4.8,0.,4.8
1979-07-15 15:17:20.910 ,6,0,2.,4.8,0.,4.8,0.,4.8,0.,4.8
1979-07-15 15:17:25.710 ,6,0,2.,4.8,0.,4.8,0.,4.8,0.,4.8
1979-07-15 15:17:30.520 ,6,0,6.,4.8,0.,4.8,0.,4.8,0.,4.8
1979-07-15 15:17:35.310 ,7,0,1.,4.8,0.,4.8,0.,4.8,0.,4.8
1979-07-15 15:17:40.110 ,7,0,2.,4.8,0.,4.8,0.,4.8,0.,4.8
1979-07-15 15:17:44.910 ,7,0,1.,4.8,0.,4.8,0.,4.8,0.,4.8
1979-07-15 15:17:49.710 ,7,0,0.,4.8,0.,4.8,0.,4.8,0.,4.8
1979-07-15 15:17:54.520 ,7,0,1.,4.8,0.,4.8,0.,4.8,0.,4.8
1979-07-15 15:17:59.310 ,7,0,2.,4.8,0.,4.8,0.,4.8,0.,4.8
1979-07-15 15:18:04.110 ,7,0,3.,4.8,0.,4.8,0.,4.8,0.,4.8
1979-07-15 15:18:08.910 ,7,0,0.,4.8,0.,4.8,0.,4.8,0.,4.8
1979-07-15 15:18:13.710 ,7,0,0.,4.8,0.,4.8,0.,4.8,0.,4.8
1979-07-15 15:18:18.520 ,7,0,4.,4.8,0.,4.8,0.,4.8,0.,4.8
1979-07-15 15:18:23.310 ,7,0,0.,4.8,0.,4.8,0.,4.8,0.,4.8
1979-07-15 15:18:28.110 ,7,0,0.,4.8,0.,4.8,0.,4.8,0.,4.8
1979-07-15 15:18:32.910 ,7,0,0.,4.8,0.,4.8,0.,4.8,0.,4.8
1979-07-15 15:18:37.710 ,7,0,1.,4.8,0.,4.8,0.,4.8,0.,4.8
1979-07-15 15:18:42.520 ,7,0,2.,4.8,0.,4.8,0.,4.8,0.,4.8
1979-07-15 15:18:47.310 ,7,0,1.,4.8,0.,4.8,0.,4.8,0.,4.8
1979-07-15 15:18:52.110 ,7,0,2.,4.8,0.,4.8,0.,4.8,0.,4.8
1979-07-15 15:18:56.910 ,7,0,3.,4.8,0.,4.8,0.,4.8,0.,4.8
1979-07-15 15:19:01.710 ,7,0,2.,4.8,0.,4.8,0.,4.8,0.,4.8
1979-07-15 15:19:06.520 ,7,0,0.,4.8,0.,4.8,0.,4.8,0.,4.8
1979-07-15 15:19:11.310 ,6,0,1.,4.8,0.,4.8,0.,4.8,0.,4.8
1979-07-15 15:19:16.110 ,6,0,0.,4.8,0.,4.8,0.,4.8,0.,4.8
1979-07-15 15:19:20.910 ,6,0,0.,4.8,0.,4.8,0.,4.8,0.,4.8
1979-07-15 15:19:25.710 ,6,0,1.,4.8,0.,4.8,0.,4.8,0.,4.8
1979-07-15 15:19:30.520 ,6,0,2.,4.8,0.,4.8,0.,4.8,0.,4.8
1979-07-15 15:19:59.310 ,5,0,1.,4.8,0.,4.8,0.,4.8,1.,4.8
1979-07-15 15:20:04.110 ,5,0,0.,4.8,0.,4.8,0.,4.8,0.,4.8
1979-07-15 15:20:08.910 ,5,0,1.,4.8,0.,4.8,0.,4.8,0.,4.8
1979-07-15 15:20:13.710 ,5,0,1.,4.8,0.,4.8,0.,4.8,0.,4.8
1979-07-15 15:20:18.520 ,5,0,0.,4.8,0.,4.8,0.,4.8,0.,4.8
1979-07-15 15:20:23.310 ,5,0,2.,4.8,0.,4.8,0.,4.8,0.,4.8
1979-07-15 15:20:28.110 ,5,0,2.,4.8,0.,4.8,0.,4.8,0.,4.8
1979-07-15 15:20:32.910 ,5,0,2.,4.8,0.,4.8,0.,4.8,1.,4.8
1979-07-15 15:20:37.710 ,5,0,3.,4.8,0.,4.8,0.,4.8,0.,4.8
1979-07-15 15:20:42.520 ,5,0,4.,4.8,0.,4.8,0.,4.8,0.,4.8
1979-07-15 15:20:47.310 ,4,0,5.,4.8,0.,4.8,0.,4.8,1.,4.8
1979-07-15 15:20:52.110 ,4,0,2.,4.8,0.,4.8,0.,4.8,0.,4.8
1979-07-15 15:20:56.910 ,4,0,1.,4.8,0.,4.8,0.,4.8,0.,4.8
1979-07-15 15:21:01.710 ,4,0,4.,4.8,0.,4.8,0.,4.8,0.,4.8
1979-07-15 15:21:06.520 ,4,0,4.,4.8,0.,4.8,0.,4.8,0.,4.8
1979-07-15 15:21:11.310 ,4,0,3.,4.8,0.,4.8,0.,4.8,0.,4.8
1979-07-15 15:21:16.110 ,4,0,1.,4.8,0.,4.8,0.,4.8,0.,4.8
1979-07-15 15:21:20.910 ,4,0,0.,4.8,0.,4.8,0.,4.8,0.,4.8
1979-07-15 15:21:25.710 ,4,0,1.,4.8,0.,4.8,0.,4.8,0.,4.8
1979-07-15 15:21:30.520 ,4,0,0.,4.8,0.,4.8,0.,4.8,0.,4.8
1979-07-15 15:21:35.310 ,3,0,2.,4.8,0.,4.8,0.,4.8,0.,4.8
1979-07-15 15:21:40.110 ,3,0,0.,4.8,0.,4.8,0.,4.8,0.,4.8
1979-07-15 15:21:44.910 ,3,0,1.,4.8,0.,4.8,0.,4.8,0.,4.8
1979-07-15 15:21:49.710 ,3,0,4.,4.8,0.,4.8,0.,4.8,0.,4.8
1979-07-15 15:21:54.520 ,3,0,1.,4.8,0.,4.8,0.,4.8,0.,4.8
1979-07-15 15:21:59.310 ,3,0,0.,4.8,0.,4.8,0.,4.8,0.,4.8
1979-07-15 15:22:04.110 ,3,0,0.,4.8,0.,4.8,0.,4.8,0.,4.8
1979-07-15 15:22:08.910 ,3,0,1.,4.8,0.,4.8,0.,4.8,0.,4.8
1979-07-15 15:22:13.710 ,3,0,1.,4.8,0.,4.8,0.,4.8,0.,4.8
1979-07-15 15:22:18.520 ,3,0,1.,4.8,0.,4.8,0.,4.8,0.,4.8
1979-07-15 15:22:23.310 ,2,0,0.,4.8,0.,4.8,0.,4.8,0.,4.8
1979-07-15 15:22:28.110 ,2,0,3.,4.8,0.,4.8,0.,4.8,0.,4.8
1979-07-15 15:22:32.910 ,2,0,1.,4.8,0.,4.8,0.,4.8,0.,4.8
1979-07-15 15:22:37.710 ,2,0,0.,4.8,0.,4.8,0.,4.8,0.,4.8
1979-07-15 15:22:42.520 ,2,0,1.,4.8,0.,4.8,0.,4.8,1.,4.8
1979-07-15 15:22:47.310 ,2,0,6.,4.8,0.,4.8,0.,4.8,0.,4.8
1979-07-15 15:22:52.110 ,2,0,2.,4.8,0.,4.8,0.,4.8,0.,4.8
1979-07-15 15:22:56.910 ,2,0,2.,4.8,0.,4.8,0.,4.8,0.,4.8
1979-07-15 15:23:01.710 ,2,0,5.,4.8,0.,4.8,0.,4.8,0.,4.8
1979-07-15 15:23:06.520 ,2,0,0.,4.8,0.,4.8,0.,4.8,0.,4.8
1979-07-15 15:23:11.310 ,1,0,5.,4.8,0.,4.8,0.,4.8,1.,4.8
1979-07-15 15:23:16.110 ,1,0,2.,4.8,0.,4.8,0.,4.8,0.,4.8
1979-07-15 15:23:20.910 ,1,0,4.,4.8,0.,4.8,0.,4.8,0.,4.8
1979-07-15 15:23:25.710 ,1,0,4.,4.8,0.,4.8,0.,4.8,0.,4.8
1979-07-15 15:23:30.520 ,1,0,4.,4.8,0.,4.8,0.,4.8,0.,4.8
1979-07-15 15:23:35.310 ,1,0,6.,4.8,0.,4.8,0.,4.8,0.,4.8
1979-07-15 15:23:40.110 ,1,0,3.,4.8,0.,4.8,0.,4.8,0.,4.8
1979-07-15 15:23:44.910 ,1,0,3.,4.8,0.,4.8,0.,4.8,0.,4.8
1979-07-15 15:23:49.710 ,1,0,1.,4.8,0.,4.8,0.,4.8,0.,4.8
1979-07-15 15:23:54.520 ,1,0,4.,4.8,0.,4.8,0.,4.8,0.,4.8
1979-07-15 15:23:59.310 ,0,0,1.,4.8,0.,4.8,0.,4.8,0.,4.8
1979-07-15 15:24:04.110 ,0,0,1.,4.8,0.,4.8,0.,4.8,1.,4.8
1979-07-15 15:24:08.910 ,0,0,2.,4.8,0.,4.8,0.,4.8,0.,4.8
1979-07-15 15:24:13.710 ,0,0,3.,4.8,0.,4.8,0.,4.8,0.,4.8
1979-07-15 15:24:18.520 ,0,0,3.,4.8,0.,4.8,0.,4.8,0.,4.8
1979-07-15 15:24:23.310 ,0,0,3.,4.8,0.,4.8,0.,4.8,0.,4.8
1979-07-15 15:24:28.110 ,0,0,2.,4.8,0.,4.8,0.,4.8,0.,4.8
1979-07-15 15:24:32.910 ,0,0,1.,4.8,0.,4.8,0.,4.8,0.,4.8
1979-07-15 15:24:37.710 ,0,0,2.,4.8,0.,4.8,0.,4.8,1.,4.8
1979-07-15 15:24:42.520 ,0,0,3.,4.8,0.,4.8,0.,4.8,0.,4.8
1979-07-15 15:24:47.310 ,0,0,1.,4.8,0.,4.8,0.,4.8,1.,4.8
1979-07-15 15:24:52.110 ,0,0,3.,4.8,0.,4.8,0.,4.8,1.,4.8
1979-07-15 15:24:56.910 ,0,0,5.,4.8,0.,4.8,0.,4.8,0.,4.8
1979-07-15 15:25:01.710 ,0,0,2.,4.8,0.,4.8,0.,4.8,0.,4.8
1979-07-15 15:25:06.520 ,0,0,5.,4.8,0.,4.8,0.,4.8,0.,4.8
1979-07-15 15:25:11.310 ,0,0,1.,4.8,0.,4.8,0.,4.8,0.,4.8
1979-07-15 15:25:16.110 ,0,0,4.,4.8,0.,4.8,0.,4.8,0.,4.8
1979-07-15 15:25:20.910 ,0,0,8.,4.8,0.,4.8,0.,4.8,0.,4.8
1979-07-15 15:25:25.710 ,0,0,2.,4.8,0.,4.8,0.,4.8,0.,4.8
1979-07-15 15:25:30.520 ,0,0,1.,4.8,0.,4.8,0.,4.8,1.,4.8
1979-07-15 15:25:35.310 ,1,0,5.,4.8,0.,4.8,0.,4.8,0.,4.8
1979-07-15 15:25:40.110 ,1,0,3.,4.8,0.,4.8,0.,4.8,1.,4.8
1979-07-15 15:25:44.910 ,1,0,6.,4.8,0.,4.8,0.,4.8,0.,4.8
1979-07-15 15:25:49.710 ,1,0,6.,4.8,0.,4.8,0.,4.8,0.,4.8
1979-07-15 15:25:54.520 ,1,0,5.,4.8,0.,4.8,0.,4.8,0.,4.8
1979-07-15 15:25:59.310 ,1,0,4.,4.8,0.,4.8,0.,4.8,0.,4.8
1979-07-15 15:26:04.110 ,1,0,5.,4.8,0.,4.8,0.,4.8,0.,4.8
1979-07-15 15:26:08.910 ,1,0,2.,4.8,0.,4.8,0.,4.8,1.,4.8
1979-07-15 15:26:13.710 ,1,0,4.,4.8,0.,4.8,0.,4.8,0.,4.8
1979-07-15 15:26:18.520 ,1,0,4.,4.8,0.,4.8,0.,4.8,0.,4.8
1979-07-15 15:26:23.310 ,2,0,3.,4.8,0.,4.8,0.,4.8,0.,4.8
1979-07-15 15:26:28.110 ,2,0,2.,4.8,0.,4.8,0.,4.8,0.,4.8
1979-07-15 15:26:32.910 ,2,0,3.,4.8,0.,4.8,0.,4.8,1.,4.8
1979-07-15 15:26:37.710 ,2,0,3.,4.8,0.,4.8,0.,4.8,0.,4.8
1979-07-15 15:26:42.520 ,2,0,2.,4.8,0.,4.8,0.,4.8,0.,4.8
1979-07-15 15:26:47.310 ,2,0,4.,4.8,0.,4.8,0.,4.8,0.,4.8
1979-07-15 15:26:52.110 ,2,0,2.,4.8,0.,4.8,0.,4.8,0.,4.8
1979-07-15 15:26:56.910 ,2,0,5.,4.8,0.,4.8,0.,4.8,1.,4.8
1979-07-15 15:27:01.710 ,2,0,4.,4.8,0.,4.8,0.,4.8,0.,4.8
1979-07-15 15:27:06.520 ,2,0,2.,4.8,0.,4.8,0.,4.8,0.,4.8
1979-07-15 15:27:11.310 ,3,0,0.,4.8,0.,4.8,0.,4.8,0.,4.8
1979-07-15 15:27:16.110 ,3,0,3.,4.8,0.,4.8,0.,4.8,0.,4.8
1979-07-15 15:27:20.910 ,3,0,5.,4.8,0.,4.8,0.,4.8,0.,4.8
1979-07-15 15:27:25.710 ,3,0,3.,4.8,0.,4.8,0.,4.8,0.,4.8
1979-07-15 15:27:30.520 ,3,0,0.,4.8,0.,4.8,0.,4.8,1.,4.8
1979-07-15 15:27:35.310 ,3,0,2.,4.8,0.,4.8,0.,4.8,0.,4.8
1979-07-15 15:27:40.110 ,3,0,2.,4.8,0.,4.8,0.,4.8,0.,4.8
1979-07-15 15:27:44.910 ,3,0,1.,4.8,0.,4.8,0.,4.8,2.,4.8
1979-07-15 15:27:49.710 ,3,0,2.,4.8,0.,4.8,0.,4.8,0.,4.8
1979-07-15 15:27:54.520 ,3,0,2.,4.8,0.,4.8,0.,4.8,0.,4.8
1979-07-15 15:27:59.310 ,4,0,3.,4.8,0.,4.8,0.,4.8,0.,4.8
1979-07-15 15:28:04.110 ,4,0,3.,4.8,0.,4.8,0.,4.8,0.,4.8
1979-07-15 15:28:08.910 ,4,0,5.,4.8,0.,4.8,0.,4.8,0.,4.8
1979-07-15 15:28:13.710 ,4,0,4.,4.8,0.,4.8,0.,4.8,0.,4.8
1979-07-15 15:28:18.520 ,4,0,5.,4.8,0.,4.8,0.,4.8,0.,4.8
1979-07-15 15:28:23.310 ,4,0,3.,4.8,0.,4.8,0.,4.8,0.,4.8
1979-07-15 15:28:28.110 ,4,0,6.,4.8,0.,4.8,0.,4.8,0.,4.8
1979-07-15 15:28:32.910 ,4,0,4.,4.8,0.,4.8,0.,4.8,0.,4.8
1979-07-15 15:28:37.710 ,4,0,1.,4.8,0.,4.8,0.,4.8,0.,4.8
1979-07-15 15:28:42.520 ,4,0,5.,4.8,0.,4.8,0.,4.8,0.,4.8
1979-07-15 15:28:47.310 ,5,0,2.,4.8,0.,4.8,0.,4.8,0.,4.8
1979-07-15 15:28:52.110 ,5,0,5.,4.8,0.,4.8,0.,4.8,0.,4.8
1979-07-15 15:28:56.910 ,5,0,1.,4.8,0.,4.8,0.,4.8,0.,4.8
1979-07-15 15:29:01.710 ,5,0,3.,4.8,0.,4.8,0.,4.8,0.,4.8
1979-07-15 15:29:06.520 ,5,0,0.,4.8,0.,4.8,0.,4.8,0.,4.8
1979-07-15 15:29:11.310 ,5,0,5.,4.8,0.,4.8,0.,4.8,0.,4.8
1979-07-15 15:29:16.110 ,5,0,3.,4.8,0.,4.8,0.,4.8,0.,4.8
1979-07-15 15:29:20.910 ,5,0,1.,4.8,0.,4.8,0.,4.8,1.,4.8
1979-07-15 15:29:25.710 ,5,0,5.,4.8,0.,4.8,0.,4.8,0.,4.8
1979-07-15 15:29:30.520 ,5,0,4.,4.8,0.,4.8,0.,4.8,0.,4.8
1979-07-15 15:29:35.310 ,6,0,3.,4.8,0.,4.8,0.,4.8,0.,4.8
1979-07-15 15:29:40.110 ,6,0,5.,4.8,0.,4.8,0.,4.8,0.,4.8
1979-07-15 15:29:44.910 ,6,0,1.,4.8,0.,4.8,0.,4.8,0.,4.8
1979-07-15 15:29:49.710 ,6,0,1.,4.8,0.,4.8,0.,4.8,1.,4.8
1979-07-15 15:29:54.520 ,6,0,0.,4.8,0.,4.8,0.,4.8,0.,4.8
1979-07-15 15:29:59.310 ,6,0,0.,4.8,0.,4.8,0.,4.8,0.,4.8
1979-07-15 15:30:04.110 ,6,0,5.,4.8,0.,4.8,0.,4.8,0.,4.8
1979-07-15 15:30:08.910 ,6,0,4.,4.8,0.,4.8,0.,4.8,0.,4.8
1979-07-15 15:30:13.710 ,6,0,1.,4.8,0.,4.8,0.,4.8,0.,4.8
1979-07-15 15:30:18.520 ,6,0,2.,4.8,0.,4.8,0.,4.8,0.,4.8
1979-07-15 15:30:23.310 ,7,0,2.,4.8,0.,4.8,0.,4.8,0.,4.8
1979-07-15 15:30:28.110 ,7,0,2.,4.8,0.,4.8,0.,4.8,0.,4.8
1979-07-15 15:30:32.910 ,7,0,3.,4.8,0.,4.8,0.,4.8,0.,4.8
1979-07-15 15:30:37.710 ,7,0,3.,4.8,0.,4.8,0.,4.8,0.,4.8
1979-07-15 15:30:42.520 ,7,0,0.,4.8,0.,4.8,0.,4.8,0.,4.8
1979-07-15 15:30:47.310 ,7,0,0.,4.8,0.,4.8,0.,4.8,0.,4.8
1979-07-15 15:30:52.110 ,7,0,1.,4.8,0.,4.8,0.,4.8,0.,4.8
1979-07-15 15:30:56.910 ,7,0,0.,4.8,0.,4.8,0.,4.8,0.,4.8
1979-07-15 15:31:01.710 ,7,0,1.,4.8,0.,4.8,0.,4.8,0.,4.8
1979-07-15 15:31:06.520 ,7,0,1.,4.8,0.,4.8,0.,4.8,0.,4.8
1979-07-15 15:31:11.310 ,3,1,1.,4.8,0.,4.8,0.,4.8,0.,4.8
1979-07-15 15:31:16.110 ,3,1,1.,4.8,0.,4.8,0.,4.8,0.,4.8
1979-07-15 15:31:20.910 ,3,1,4.,4.8,0.,4.8,0.,4.8,0.,4.8
1979-07-15 15:31:25.710 ,3,1,1.,4.8,0.,4.8,0.,4.8,0.,4.8
1979-07-15 15:31:30.520 ,3,1,2.,4.8,0.,4.8,0.,4.8,0.,4.8
1979-07-15 15:31:35.310 ,0,1,2.,4.8,0.,4.8,0.,4.8,0.,4.8
1979-07-15 15:31:40.110 ,0,1,2.,4.8,0.,4.8,0.,4.8,1.,4.8
1979-07-15 15:31:44.910 ,0,1,4.,4.8,0.,4.8,0.,4.8,0.,4.8
1979-07-15 15:31:49.710 ,0,1,2.,4.8,0.,4.8,0.,4.8,0.,4.8
1979-07-15 15:31:54.520 ,0,1,3.,4.8,0.,4.8,0.,4.8,0.,4.8
1979-07-15 15:31:59.310 ,4,1,1.,4.8,0.,4.8,0.,4.8,0.,4.8
1979-07-15 15:32:04.110 ,4,1,3.,4.8,0.,4.8,0.,4.8,0.,4.8
1979-07-15 15:32:08.910 ,4,1,2.,4.8,0.,4.8,0.,4.8,0.,4.8
1979-07-15 15:32:13.710 ,4,1,0.,4.8,0.,4.8,0.,4.8,0.,4.8
1979-07-15 15:32:18.510 ,4,1,2.,4.8,0.,4.8,0.,4.8,0.,4.8
1979-07-15 15:32:23.310 ,7,1,3.,4.8,0.,4.8,0.,4.8,1.,4.8
1979-07-15 15:32:28.110 ,7,1,2.,4.8,0.,4.8,0.,4.8,0.,4.8
1979-07-15 15:32:32.910 ,7,1,2.,4.8,0.,4.8,0.,4.8,0.,4.8
1979-07-15 15:32:37.710 ,7,1,3.,4.8,0.,4.8,0.,4.8,0.,4.8
1979-07-15 15:32:42.510 ,7,1,3.,4.8,0.,4.8,0.,4.8,0.,4.8
1979-07-15 15:32:47.310 ,3,1,4.,4.8,0.,4.8,0.,4.8,0.,4.8
1979-07-15 15:32:52.110 ,3,1,1.,4.8,0.,4.8,0.,4.8,0.,4.8
1979-07-15 15:32:56.910 ,3,1,6.,4.8,0.,4.8,0.,4.8,0.,4.8
1979-07-15 15:33:01.710 ,3,1,4.,4.8,0.,4.8,0.,4.8,0.,4.8
1979-07-15 15:33:06.510 ,3,1,1.,4.8,0.,4.8,0.,4.8,0.,4.8
1979-07-15 15:33:11.310 ,0,1,3.,4.8,0.,4.8,0.,4.8,0.,4.8
1979-07-15 15:33:16.110 ,0,1,1.,4.8,0.,4.8,0.,4.8,1.,4.8
1979-07-15 15:33:20.910 ,0,1,5.,4.8,0.,4.8,0.,4.8,0.,4.8
1979-07-15 15:33:25.710 ,0,1,2.,4.8,0.,4.8,0.,4.8,0.,4.8
1979-07-15 15:33:30.510 ,0,1,3.,4.8,0.,4.8,0.,4.8,0.,4.8
1979-07-15 15:33:35.310 ,4,1,2.,4.8,0.,4.8,0.,4.8,0.,4.8
1979-07-15 15:33:40.110 ,4,1,2.,4.8,0.,4.8,0.,4.8,0.,4.8
1979-07-15 15:33:44.910 ,4,1,2.,4.8,0.,4.8,0.,4.8,0.,4.8
1979-07-15 15:33:49.710 ,4,1,1.,4.8,0.,4.8,0.,4.8,0.,4.8
1979-07-15 15:33:54.510 ,4,1,2.,4.8,0.,4.8,0.,4.8,0.,4.8
1979-07-15 15:33:59.310 ,7,1,3.,4.8,0.,4.8,0.,4.8,0.,4.8
1979-07-15 15:34:04.110 ,7,1,3.,4.8,0.,4.8,0.,4.8,0.,4.8